Simultaneous Nadir Overpasses (SNOs) Predictions

Prediction of SNOs between AQUA and METOP-A Satellite Orbit:

Table of predicted SNOs for the next 14.0 days since TLE Epoch: 7/29/2016
Index Date (AQUA) Time (AQUA) Lat,Lon (AQUA) SZA (AQUA ) Date (METOP-A) Time (METOP-A) Lat,Lon (METOP-A) SZA (METOP-A ) Distance(km) Time Diff (sec)
1 07/31/2016 21:28:52 73.49,-147.32 55.54 07/31/2016 21:27:43 73.45,-148.90 55.59 50.18 69
2 07/31/2016 22:18:26 -73.91, 19.40 123.99 07/31/2016 22:18:16 -73.91, 19.51 124.00 3.37 10
3 07/31/2016 23:07:54 73.95,-173.05 56.06 07/31/2016 23:08:54 73.97,-173.00 56.07 2.60 60
4 08/03/2016 17:03:11 73.74, -81.43 56.55 08/03/2016 17:01:59 73.66, -82.00 56.50 20.22 72
5 08/03/2016 17:52:40 -73.90, 85.86 123.28 08/03/2016 17:52:37 -73.87, 85.84 123.30 3.11 3
6 08/03/2016 18:42:08 73.95,-106.60 56.79 08/03/2016 18:43:15 73.93,-106.68 56.76 2.97 67
7 08/06/2016 12:37:28 73.85, -15.23 57.42 08/06/2016 12:36:17 73.82, -15.22 57.40 3.76 71
8 08/06/2016 13:26:55 -73.90, 152.31 122.52 08/06/2016 13:26:58 -73.89, 152.28 122.53 1.56 3
9 08/06/2016 14:16:23 73.95, -40.17 57.55 08/06/2016 14:17:36 73.94, -40.25 57.54 2.52 73
10 08/09/2016 08:11:42 73.81, 51.31 58.17 08/09/2016 08:10:38 73.82, 51.22 58.21 3.52 64
11 08/09/2016 09:01:10 -73.90,-141.26 121.72 08/09/2016 09:01:19 -73.90,-141.29 121.72 0.89 9
12 08/09/2016 09:50:42 74.17, 25.77 58.58 08/09/2016 09:51:53 74.15, 26.67 58.52 27.19 71
13 08/12/2016 03:45:56 73.82, 117.71 59.02 08/12/2016 03:44:58 73.83, 117.64 59.04 2.53 58
14 08/12/2016 04:35:24 -73.91, -74.85 120.88 08/12/2016 04:35:39 -73.90, -74.86 120.89 0.69 15




NCC Satellite Simultaneous Nadir Overpasses (SNOs) Prediction Service
